Time,TemperatureF,DewpointF,PressureIn,WindDirection,WindDirectionDegrees,WindSpeedMPH,WindSpeedGustMPH,Humidity,HourlyPrecipIn,Conditions,Clouds,dailyrainin,SoftwareType,DateUTC
2013-09-10 00:04:00,69.6,34.1,24.75,WNW,299,16.0,-999.0,27,-99.99,,,-99.99,dwt +perl,2013-09-10 07:04:00,
2013-09-10 00:09:00,69.5,33.1,24.76,WNW,286,16.0,-999.0,26,-99.99,,,-99.99,dwt +perl,2013-09-10 07:09:00,
2013-09-10 00:14:00,69.4,34.0,24.75,NW,313,12.0,-999.0,27,-99.99,,,-99.99,dwt +perl,2013-09-10 07:14:00,
2013-09-10 00:19:00,69.4,33.0,24.75,NW,305,19.0,-999.0,26,-99.99,,,-99.99,dwt +perl,2013-09-10 07:19:00,
2013-09-10 00:24:00,69.5,33.1,24.75,WNW,293,13.0,-999.0,26,-99.99,,,-99.99,dwt +perl,2013-09-10 07:24:00,
2013-09-10 00:29:00,69.5,33.1,24.75,WNW,300,15.0,-999.0,26,-99.99,,,-99.99,dwt +perl,2013-09-10 07:29:00,
2013-09-10 00:34:00,69.3,32.9,24.75,NW,310,14.0,-999.0,26,-99.99,,,-99.99,dwt +perl,2013-09-10 07:34:00,
2013-09-10 00:39:00,69.1,31.8,24.75,WNW,298,13.0,-999.0,25,-99.99,,,-99.99,dwt +perl,2013-09-10 07:39:00,
2013-09-10 00:44:00,69.0,31.7,24.75,WNW,300,15.0,-999.0,25,-99.99,,,-99.99,dwt +perl,2013-09-10 07:44:00,
2013-09-10 00:49:00,68.9,30.6,24.75,WNW,303,13.0,-999.0,24,-99.99,,,-99.99,dwt +perl,2013-09-10 07:49:00,
2013-09-10 00:54:00,68.8,31.5,24.75,West,280,10.0,-999.0,25,-99.99,,,-99.99,dwt +perl,2013-09-10 07:54:00,
2013-09-10 00:59:00,68.9,32.6,24.76,WNW,293,12.0,-999.0,26,-99.99,,,-99.99,dwt +perl,2013-09-10 07:59:00,
2013-09-10 01:04:00,69.0,31.7,24.76,WNW,287,13.0,-999.0,25,-99.99,,,-99.99,dwt +perl,2013-09-10 08:04:00,
2013-09-10 01:09:00,69.1,32.8,24.76,WNW,303,14.0,-999.0,26,-99.99,,,-99.99,dwt +perl,2013-09-10 08:09:00,
2013-09-10 01:14:00,69.1,31.8,24.76,NW,312,16.0,-999.0,25,-99.99,,,-99.99,dwt +perl,2013-09-10 08:14:00,
2013-09-10 01:19:00,69.0,31.7,24.76,WNW,295,9.0,-999.0,25,-99.99,,,-99.99,dwt +perl,2013-09-10 08:19:00,
2013-09-10 01:24:00,69.1,33.7,24.75,WNW,285,16.0,-999.0,27,-99.99,,,-99.99,dwt +perl,2013-09-10 08:24:00,
2013-09-10 01:29:00,69.1,32.8,24.75,WNW,303,14.0,-999.0,26,-99.99,,,-99.99,dwt +perl,2013-09-10 08:29:00,
2013-09-10 01:34:00,69.0,32.7,24.75,WNW,295,15.0,-999.0,26,-99.99,,,-99.99,dwt +perl,2013-09-10 08:34:00,
2013-09-10 01:39:00,69.0,32.7,24.76,West,271,17.0,-999.0,26,-99.99,,,-99.99,dwt +perl,2013-09-10 08:39:00,
2013-09-10 01:44:00,69.0,32.7,24.75,WNW,301,10.0,-999.0,26,-99.99,,,-99.99,dwt +perl,2013-09-10 08:44:00,
2013-09-10 01:49:00,68.9,32.6,24.75,NW,304,12.0,-999.0,26,-99.99,,,-99.99,dwt +perl,2013-09-10 08:49:00,
2013-09-10 01:54:00,69.0,32.7,24.75,WNW,297,16.0,-999.0,26,-99.99,,,-99.99,dwt +perl,2013-09-10 08:54:00,
2013-09-10 01:59:00,69.1,32.8,24.75,West,278,12.0,-999.0,26,-99.99,,,-99.99,dwt +perl,2013-09-10 08:59:00,
2013-09-10 02:14:00,69.1,30.8,24.75,NW,305,9.0,-999.0,24,-99.99,,,-99.99,dwt +perl,2013-09-10 09:14:00,
2013-09-10 02:19:00,69.3,31.0,24.75,WNW,297,11.0,-999.0,24,-99.99,,,-99.99,dwt +perl,2013-09-10 09:19:00,
2013-09-10 02:24:00,69.4,31.0,24.75,WNW,303,16.0,-999.0,24,-99.99,,,-99.99,dwt +perl,2013-09-10 09:24:00,
2013-09-10 02:29:00,69.4,30.0,24.75,NW,308,9.0,-999.0,23,-99.99,,,-99.99,dwt +perl,2013-09-10 09:29:00,
2013-09-10 02:39:00,69.2,28.7,24.75,WNW,294,12.0,-999.0,22,-99.99,,,-99.99,dwt +perl,2013-09-10 09:39:00,
2013-09-10 02:44:00,69.1,30.8,24.75,WNW,297,12.0,-999.0,24,-99.99,,,-99.99,dwt +perl,2013-09-10 09:44:00,
2013-09-10 02:49:00,69.4,28.9,24.75,NW,309,14.0,-999.0,22,-99.99,,,-99.99,dwt +perl,2013-09-10 09:49:00,
2013-09-10 02:54:00,69.3,28.8,24.75,NW,310,13.0,-999.0,22,-99.99,,,-99.99,dwt +perl,2013-09-10 09:54:00,
2013-09-10 02:59:00,69.1,29.7,24.75,West,274,13.0,-999.0,23,-99.99,,,-99.99,dwt +perl,2013-09-10 09:59:00,
2013-09-10 03:09:00,68.9,29.6,24.74,West,280,14.0,-999.0,23,-99.99,,,-99.99,dwt +perl,2013-09-10 10:09:00,
2013-09-10 03:14:00,68.9,29.6,24.75,West,273,11.0,-999.0,23,-99.99,,,-99.99,dwt +perl,2013-09-10 10:14:00,
2013-09-10 03:29:00,68.9,28.5,24.74,WNW,302,12.0,-999.0,22,-99.99,,,-99.99,dwt +perl,2013-09-10 10:29:00,
2013-09-10 03:34:00,68.8,28.4,24.74,West,271,10.0,-999.0,22,-99.99,,,-99.99,dwt +perl,2013-09-10 10:34:00,
2013-09-10 03:39:00,68.8,29.5,24.74,WNW,294,12.0,-999.0,23,-99.99,,,-99.99,dwt +perl,2013-09-10 10:39:00,
2013-09-10 03:44:00,68.8,29.5,24.74,West,280,11.0,-999.0,23,-99.99,,,-99.99,dwt +perl,2013-09-10 10:44:00,
2013-09-10 03:49:00,68.7,28.3,24.74,WNW,285,16.0,-999.0,22,-99.99,,,-99.99,dwt +perl,2013-09-10 10:49:00,
2013-09-10 03:54:00,68.8,28.4,24.74,WNW,296,9.0,-999.0,22,-99.99,,,-99.99,dwt +perl,2013-09-10 10:54:00,
2013-09-10 04:09:00,68.7,28.3,24.74,WNW,299,12.0,-999.0,22,-99.99,,,-99.99,dwt +perl,2013-09-10 11:09:00,
2013-09-10 04:14:00,68.7,28.3,24.74,WNW,303,14.0,-999.0,22,-99.99,,,-99.99,dwt +perl,2013-09-10 11:14:00,
2013-09-10 04:19:00,68.7,28.3,24.74,WNW,296,14.0,-999.0,22,-99.99,,,-99.99,dwt +perl,2013-09-10 11:19:00,
2013-09-10 04:24:00,68.7,27.2,24.74,WNW,282,10.0,-999.0,21,-99.99,,,-99.99,dwt +perl,2013-09-10 11:24:00,
2013-09-10 04:29:00,68.7,27.2,24.74,West,270,9.0,-999.0,21,-99.99,,,-99.99,dwt +perl,2013-09-10 11:29:00,
2013-09-10 04:34:00,68.6,29.3,24.74,WNW,295,14.0,-999.0,23,-99.99,,,-99.99,dwt +perl,2013-09-10 11:34:00,
2013-09-10 04:39:00,68.8,29.5,24.74,NW,304,15.0,-999.0,23,-99.99,,,-99.99,dwt +perl,2013-09-10 11:39:00,
2013-09-10 04:44:00,68.8,29.5,24.74,West,265,9.0,-999.0,23,-99.99,,,-99.99,dwt +perl,2013-09-10 11:44:00,
2013-09-10 04:49:00,68.6,29.3,24.74,WNW,291,11.0,-999.0,23,-99.99,,,-99.99,dwt +perl,2013-09-10 11:49:00,
2013-09-10 04:54:00,68.6,28.2,24.74,NW,307,13.0,-999.0,22,-99.99,,,-99.99,dwt +perl,2013-09-10 11:54:00,
2013-09-10 05:04:00,68.3,29.1,24.74,WNW,302,11.0,-999.0,23,-99.99,,,-99.99,dwt +perl,2013-09-10 12:04:00,
2013-09-10 05:09:00,68.3,29.1,24.74,WNW,303,9.0,-999.0,23,-99.99,,,-99.99,dwt +perl,2013-09-10 12:09:00,
2013-09-10 05:14:00,68.3,28.0,24.74,West,276,11.0,-999.0,22,-99.99,,,-99.99,dwt +perl,2013-09-10 12:14:00,
2013-09-10 05:19:00,68.4,28.1,24.75,NW,308,10.0,-999.0,22,-99.99,,,-99.99,dwt +perl,2013-09-10 12:19:00,
2013-09-10 05:29:00,68.3,30.1,24.75,WNW,286,9.0,-999.0,24,-99.99,,,-99.99,dwt +perl,2013-09-10 12:29:00,
2013-09-10 05:34:00,68.2,30.0,24.75,West,278,11.0,-999.0,24,-99.99,,,-99.99,dwt +perl,2013-09-10 12:34:00,
2013-09-10 05:39:00,68.1,29.9,24.75,WNW,287,13.0,-999.0,24,-99.99,,,-99.99,dwt +perl,2013-09-10 12:39:00,
2013-09-10 05:44:00,67.9,31.7,24.75,WNW,282,13.0,-999.0,26,-99.99,,,-99.99,dwt +perl,2013-09-10 12:44:00,
2013-09-10 05:49:00,67.9,30.8,24.74,WNW,292,13.0,-999.0,25,-99.99,,,-99.99,dwt +perl,2013-09-10 12:49:00,
2013-09-10 05:54:00,68.0,31.8,24.74,WNW,297,12.0,-999.0,26,-99.99,,,-99.99,dwt +perl,2013-09-10 12:54:00,
2013-09-10 05:59:00,68.0,30.9,24.75,WSW,251,14.0,-999.0,25,-99.99,,,-99.99,dwt +perl,2013-09-10 12:59:00,
2013-09-10 06:04:00,68.1,31.0,24.75,West,280,10.0,-999.0,25,-99.99,,,-99.99,dwt +perl,2013-09-10 13:04:00,
2013-09-10 06:09:00,68.2,30.0,24.75,WNW,284,10.0,-999.0,24,-99.99,,,-99.99,dwt +perl,2013-09-10 13:09:00,
2013-09-10 06:14:00,68.2,31.0,24.75,West,276,13.0,-999.0,25,-99.99,,,-99.99,dwt +perl,2013-09-10 13:14:00,
2013-09-10 06:19:00,68.4,30.2,24.75,West,272,13.0,-999.0,24,-99.99,,,-99.99,dwt +perl,2013-09-10 13:19:00,
2013-09-10 06:24:00,68.4,29.1,24.75,WNW,283,14.0,-999.0,23,-99.99,,,-99.99,dwt +perl,2013-09-10 13:24:00,
2013-09-10 06:29:00,68.4,30.2,24.75,WSW,256,11.0,-999.0,24,-99.99,,,-99.99,dwt +perl,2013-09-10 13:29:00,
2013-09-10 06:34:00,68.3,31.1,24.75,West,279,11.0,-999.0,25,-99.99,,,-99.99,dwt +perl,2013-09-10 13:34:00,
2013-09-10 06:39:00,68.1,31.0,24.75,West,277,11.0,-999.0,25,-99.99,,,-99.99,dwt +perl,2013-09-10 13:39:00,
2013-09-10 06:49:00,68.0,29.9,24.75,West,260,10.0,-999.0,24,-99.99,,,-99.99,dwt +perl,2013-09-10 13:49:00,
2013-09-10 06:54:00,68.1,29.9,24.75,West,276,14.0,-999.0,24,-99.99,,,-99.99,dwt +perl,2013-09-10 13:54:00,
2013-09-10 06:59:00,68.1,28.9,24.75,West,276,15.0,-999.0,23,-99.99,,,-99.99,dwt +perl,2013-09-10 13:59:00,
2013-09-10 07:09:00,68.3,28.0,24.75,West,271,12.0,-999.0,22,-99.99,,,-99.99,dwt +perl,2013-09-10 14:09:00,
2013-09-10 07:14:00,68.2,27.9,24.76,WNW,289,14.0,-999.0,22,-99.99,,,-99.99,dwt +perl,2013-09-10 14:14:00,
2013-09-10 07:19:00,68.2,29.0,24.76,West,261,9.0,-999.0,23,-99.99,,,-99.99,dwt +perl,2013-09-10 14:19:00,
2013-09-10 07:24:00,68.2,27.9,24.76,West,279,12.0,-999.0,22,-99.99,,,-99.99,dwt +perl,2013-09-10 14:24:00,
2013-09-10 07:29:00,68.2,29.0,24.76,West,275,12.0,-999.0,23,-99.99,,,-99.99,dwt +perl,2013-09-10 14:29:00,
2013-09-10 07:34:00,68.3,30.1,24.76,WNW,282,16.0,-999.0,24,-99.99,,,-99.99,dwt +perl,2013-09-10 14:34:00,
2013-09-10 07:39:00,68.3,31.1,24.76,West,274,8.0,-999.0,25,-99.99,,,-99.99,dwt +perl,2013-09-10 14:39:00,
2013-09-10 07:44:00,68.3,32.1,24.76,West,267,8.0,-999.0,26,-99.99,,,-99.99,dwt +perl,2013-09-10 14:44:00,
2013-09-10 07:49:00,68.4,30.2,24.76,West,276,14.0,-999.0,24,-99.99,,,-99.99,dwt +perl,2013-09-10 14:49:00,
2013-09-10 07:54:00,68.4,32.2,24.76,West,271,11.0,-999.0,26,-99.99,,,-99.99,dwt +perl,2013-09-10 14:54:00,
2013-09-10 07:59:00,68.4,32.2,24.76,WNW,289,12.0,-999.0,26,-99.99,,,-99.99,dwt +perl,2013-09-10 14:59:00,
2013-09-10 08:04:00,68.5,32.2,24.77,WNW,283,16.0,-999.0,26,-99.99,,,-99.99,dwt +perl,2013-09-10 15:04:00,
2013-09-10 08:09:00,68.5,33.2,24.77,West,281,11.0,-999.0,27,-99.99,,,-99.99,dwt +perl,2013-09-10 15:09:00,
2013-09-10 08:14:00,68.4,32.2,24.77,WNW,284,14.0,-999.0,26,-99.99,,,-99.99,dwt +perl,2013-09-10 15:14:00,
2013-09-10 08:19:00,68.4,33.1,24.77,West,277,14.0,-999.0,27,-99.99,,,-99.99,dwt +perl,2013-09-10 15:19:00,
2013-09-10 08:24:00,68.5,33.2,24.77,West,281,13.0,-999.0,27,-99.99,,,-99.99,dwt +perl,2013-09-10 15:24:00,
2013-09-10 08:29:00,68.6,33.3,24.77,West,274,10.0,-999.0,27,-99.99,,,-99.99,dwt +perl,2013-09-10 15:29:00,
2013-09-10 08:39:00,68.7,32.4,24.77,West,264,14.0,-999.0,26,-99.99,,,-99.99,dwt +perl,2013-09-10 15:39:00,
2013-09-10 08:44:00,69.0,30.7,24.77,WNW,289,13.0,-999.0,24,-99.99,,,-99.99,dwt +perl,2013-09-10 15:44:00,
2013-09-10 08:54:00,69.5,27.9,24.77,West,271,14.0,-999.0,21,-99.99,,,-99.99,dwt +perl,2013-09-10 15:54:00,
2013-09-10 08:59:00,69.7,29.1,24.77,West,273,6.0,-999.0,22,-99.99,,,-99.99,dwt +perl,2013-09-10 15:59:00,
2013-09-10 09:09:00,70.2,27.2,24.78,West,276,11.0,-999.0,20,-99.99,,,-99.99,dwt +perl,2013-09-10 16:09:00,
2013-09-10 09:14:00,70.2,26.0,24.78,West,280,8.0,-999.0,19,-99.99,,,-99.99,dwt +perl,2013-09-10 16:14:00,
2013-09-10 09:24:00,70.9,25.3,24.78,West,263,4.0,-999.0,18,-99.99,,,-99.99,dwt +perl,2013-09-10 16:24:00,
2013-09-10 09:29:00,71.2,26.8,24.78,West,281,5.0,-999.0,19,-99.99,,,-99.99,dwt +perl,2013-09-10 16:29:00,
2013-09-10 09:34:00,71.5,27.1,24.78,WSW,258,6.0,-999.0,19,-99.99,,,-99.99,dwt +perl,2013-09-10 16:34:00,
2013-09-10 09:39:00,71.6,28.4,24.78,WSW,257,8.0,-999.0,20,-99.99,,,-99.99,dwt +perl,2013-09-10 16:39:00,
2013-09-10 09:44:00,71.9,27.4,24.78,WSW,237,8.0,-999.0,19,-99.99,,,-99.99,dwt +perl,2013-09-10 16:44:00,
2013-09-10 09:49:00,72.0,26.2,24.78,WNW,291,11.0,-999.0,18,-99.99,,,-99.99,dwt +perl,2013-09-10 16:49:00,
2013-09-10 09:54:00,72.2,26.3,24.78,WSW,242,8.0,-999.0,18,-99.99,,,-99.99,dwt +perl,2013-09-10 16:54:00,
2013-09-10 09:59:00,72.4,27.8,24.79,WSW,254,6.0,-999.0,19,-99.99,,,-99.99,dwt +perl,2013-09-10 16:59:00,
2013-09-10 10:04:00,72.7,29.3,24.79,West,266,6.0,-999.0,20,-99.99,,,-99.99,dwt +perl,2013-09-10 17:04:00,
2013-09-10 10:09:00,72.9,28.2,24.79,West,267,9.0,-999.0,19,-99.99,,,-99.99,dwt +perl,2013-09-10 17:09:00,
2013-09-10 10:14:00,73.1,28.4,24.79,SW,228,12.0,-999.0,19,-99.99,,,-99.99,dwt +perl,2013-09-10 17:14:00,
2013-09-10 10:24:00,73.2,28.5,24.79,West,272,8.0,-999.0,19,-99.99,,,-99.99,dwt +perl,2013-09-10 17:24:00,
2013-09-10 10:29:00,73.2,28.5,24.79,SSW,212,7.0,-999.0,19,-99.99,,,-99.99,dwt +perl,2013-09-10 17:29:00,
2013-09-10 10:34:00,73.7,28.9,24.79,WNW,283,6.0,-999.0,19,-99.99,,,-99.99,dwt +perl,2013-09-10 17:34:00,
2013-09-10 10:39:00,73.8,27.6,24.79,WSW,258,5.0,-999.0,18,-99.99,,,-99.99,dwt +perl,2013-09-10 17:39:00,
2013-09-10 10:44:00,74.0,29.1,24.79,WSW,249,5.0,-999.0,19,-99.99,,,-99.99,dwt +perl,2013-09-10 17:44:00,
2013-09-10 10:49:00,73.9,27.7,24.79,West,268,9.0,-999.0,18,-99.99,,,-99.99,dwt +perl,2013-09-10 17:49:00,
2013-09-10 10:54:00,73.9,27.7,24.79,NW,312,9.0,-999.0,18,-99.99,,,-99.99,dwt +perl,2013-09-10 17:54:00,
2013-09-10 10:59:00,73.9,27.7,24.79,WNW,298,4.0,-999.0,18,-99.99,,,-99.99,dwt +perl,2013-09-10 17:59:00,
2013-09-10 11:04:00,74.4,29.5,24.79,WNW,289,3.0,-999.0,19,-99.99,,,-99.99,dwt +perl,2013-09-10 18:04:00,
2013-09-10 11:09:00,74.6,28.3,24.79,NW,318,0.0,-999.0,18,-99.99,,,-99.99,dwt +perl,2013-09-10 18:09:00,
2013-09-10 11:14:00,75.4,31.5,24.79,WSW,252,0.0,-999.0,20,-99.99,,,-99.99,dwt +perl,2013-09-10 18:14:00,
2013-09-10 11:19:00,76.0,30.8,24.79,WSW,250,3.0,-999.0,19,-99.99,,,-99.99,dwt +perl,2013-09-10 18:19:00,
2013-09-10 11:24:00,76.0,30.8,24.79,West,263,3.0,-999.0,19,-99.99,,,-99.99,dwt +perl,2013-09-10 18:24:00,
2013-09-10 11:39:00,76.0,30.8,24.79,West,260,5.0,-999.0,19,-99.99,,,-99.99,dwt +perl,2013-09-10 18:39:00,
2013-09-10 11:44:00,75.9,31.9,24.79,West,272,0.0,-999.0,20,-99.99,,,-99.99,dwt +perl,2013-09-10 18:44:00,
2013-09-10 11:49:00,76.9,31.5,24.79,WSW,249,1.0,-999.0,19,-99.99,,,-99.99,dwt +perl,2013-09-10 18:49:00,
2013-09-10 11:54:00,76.7,28.6,24.79,WSW,251,3.0,-999.0,17,-99.99,,,-99.99,dwt +perl,2013-09-10 18:54:00,
2013-09-10 11:59:00,76.4,29.8,24.79,WNW,289,7.0,-999.0,18,-99.99,,,-99.99,dwt +perl,2013-09-10 18:59:00,
2013-09-10 12:04:00,75.7,29.2,24.79,NW,309,6.0,-999.0,18,-99.99,,,-99.99,dwt +perl,2013-09-10 19:04:00,
2013-09-10 12:09:00,75.9,31.9,24.79,WNW,293,2.0,-999.0,20,-99.99,,,-99.99,dwt +perl,2013-09-10 19:09:00,
2013-09-10 12:14:00,76.8,32.7,24.79,SSW,208,3.0,-999.0,20,-99.99,,,-99.99,dwt +perl,2013-09-10 19:14:00,
2013-09-10 12:24:00,78.0,32.4,24.79,SW,231,9.0,-999.0,19,-99.99,,,-99.99,dwt +perl,2013-09-10 19:24:00,
2013-09-10 12:29:00,78.4,32.7,24.79,SW,233,0.0,-999.0,19,-99.99,,,-99.99,dwt +perl,2013-09-10 19:29:00,
2013-09-10 12:34:00,79.0,33.2,24.79,SW,233,0.0,-999.0,19,-99.99,,,-99.99,dwt +perl,2013-09-10 19:34:00,
2013-09-10 12:39:00,79.4,34.8,24.79,SW,232,1.0,-999.0,20,-99.99,,,-99.99,dwt +perl,2013-09-10 19:39:00,
2013-09-10 12:44:00,79.3,34.7,24.79,SSW,192,0.0,-999.0,20,-99.99,,,-99.99,dwt +perl,2013-09-10 19:44:00,
2013-09-10 12:49:00,79.2,34.7,24.79,WSW,245,3.0,-999.0,20,-99.99,,,-99.99,dwt +perl,2013-09-10 19:49:00,
2013-09-10 12:54:00,79.3,33.5,24.79,SW,221,1.0,-999.0,19,-99.99,,,-99.99,dwt +perl,2013-09-10 19:54:00,
2013-09-10 12:59:00,78.1,33.8,24.79,SSW,204,0.0,-999.0,20,-99.99,,,-99.99,dwt +perl,2013-09-10 19:59:00,
2013-09-10 13:14:00,79.1,34.6,24.79,West,273,0.0,-999.0,20,-99.99,,,-99.99,dwt +perl,2013-09-10 20:14:00,
2013-09-10 13:19:00,79.4,37.2,24.79,West,270,4.0,-999.0,22,-99.99,,,-99.99,dwt +perl,2013-09-10 20:19:00,
2013-09-10 13:24:00,79.7,37.5,24.79,WNW,283,1.0,-999.0,22,-99.99,,,-99.99,dwt +perl,2013-09-10 20:24:00,
2013-09-10 13:29:00,79.3,34.7,24.79,NNW,338,2.0,-999.0,20,-99.99,,,-99.99,dwt +perl,2013-09-10 20:29:00,
2013-09-10 13:34:00,78.4,34.0,24.79,SW,228,0.0,-999.0,20,-99.99,,,-99.99,dwt +perl,2013-09-10 20:34:00,
2013-09-10 13:39:00,78.2,35.0,24.79,WSW,258,4.0,-999.0,21,-99.99,,,-99.99,dwt +perl,2013-09-10 20:39:00,
2013-09-10 13:44:00,77.5,33.2,24.79,NW,316,3.0,-999.0,20,-99.99,,,-99.99,dwt +perl,2013-09-10 20:44:00,
2013-09-10 13:49:00,78.2,32.5,24.79,NW,308,1.0,-999.0,19,-99.99,,,-99.99,dwt +perl,2013-09-10 20:49:00,
2013-09-10 13:59:00,76.7,33.8,24.79,WNW,289,0.0,-999.0,21,-99.99,,,-99.99,dwt +perl,2013-09-10 20:59:00,
2013-09-10 14:04:00,77.3,34.3,24.79,WNW,291,3.0,-999.0,21,-99.99,,,-99.99,dwt +perl,2013-09-10 21:04:00,
2013-09-10 14:09:00,77.9,37.1,24.79,West,270,0.0,-999.0,23,-99.99,,,-99.99,dwt +perl,2013-09-10 21:09:00,
2013-09-10 14:14:00,78.2,37.3,24.79,West,276,1.0,-999.0,23,-99.99,,,-99.99,dwt +perl,2013-09-10 21:14:00,
2013-09-10 14:19:00,78.7,37.8,24.79,WNW,299,3.0,-999.0,23,-99.99,,,-99.99,dwt +perl,2013-09-10 21:19:00,
2013-09-10 14:24:00,78.8,37.8,24.79,WNW,288,0.0,-999.0,23,-99.99,,,-99.99,dwt +perl,2013-09-10 21:24:00,
2013-09-10 14:34:00,78.5,38.7,24.79,WNW,295,0.0,-999.0,24,-99.99,,,-99.99,dwt +perl,2013-09-10 21:34:00,
2013-09-10 14:39:00,78.6,38.8,24.79,WNW,294,2.0,-999.0,24,-99.99,,,-99.99,dwt +perl,2013-09-10 21:39:00,
2013-09-10 14:44:00,77.2,40.6,24.79,WNW,303,2.0,-999.0,27,-99.99,,,-99.99,dwt +perl,2013-09-10 21:44:00,
2013-09-10 14:49:00,77.4,37.8,24.79,West,267,5.0,-999.0,24,-99.99,,,-99.99,dwt +perl,2013-09-10 21:49:00,
2013-09-10 15:04:00,78.0,42.2,24.79,NW,304,0.0,-999.0,28,-99.99,,,-99.99,dwt +perl,2013-09-10 22:04:00,
2013-09-10 15:09:00,77.6,41.0,24.78,WNW,299,3.0,-999.0,27,-99.99,,,-99.99,dwt +perl,2013-09-10 22:09:00,
2013-09-10 15:14:00,77.9,39.2,24.78,West,262,1.0,-999.0,25,-99.99,,,-99.99,dwt +perl,2013-09-10 22:14:00,
2013-09-10 15:19:00,78.6,41.8,24.78,WSW,245,2.0,-999.0,27,-99.99,,,-99.99,dwt +perl,2013-09-10 22:19:00,
2013-09-10 15:24:00,78.9,42.1,24.78,WSW,253,1.0,-999.0,27,-99.99,,,-99.99,dwt +perl,2013-09-10 22:24:00,
2013-09-10 15:29:00,78.7,38.8,24.78,WNW,284,1.0,-999.0,24,-99.99,,,-99.99,dwt +perl,2013-09-10 22:29:00,
2013-09-10 15:34:00,78.9,41.1,24.78,West,268,5.0,-999.0,26,-99.99,,,-99.99,dwt +perl,2013-09-10 22:34:00,
2013-09-10 15:39:00,78.1,42.3,24.78,NW,307,6.0,-999.0,28,-99.99,,,-99.99,dwt +perl,2013-09-10 22:39:00,
2013-09-10 15:44:00,77.3,43.4,24.78,SW,224,3.0,-999.0,30,-99.99,,,-99.99,dwt +perl,2013-09-10 22:44:00,
2013-09-10 15:49:00,77.9,44.8,24.78,SSW,213,10.0,-999.0,31,-99.99,,,-99.99,dwt +perl,2013-09-10 22:49:00,
2013-09-10 15:54:00,78.0,44.0,24.78,WSW,254,6.0,-999.0,30,-99.99,,,-99.99,dwt +perl,2013-09-10 22:54:00,
2013-09-10 16:04:00,78.1,45.8,24.78,WNW,285,0.0,-999.0,32,-99.99,,,-99.99,dwt +perl,2013-09-10 23:04:00,
2013-09-10 16:09:00,77.9,44.8,24.78,WSW,245,2.0,-999.0,31,-99.99,,,-99.99,dwt +perl,2013-09-10 23:09:00,
2013-09-10 16:14:00,78.3,45.2,24.78,WSW,242,5.0,-999.0,31,-99.99,,,-99.99,dwt +perl,2013-09-10 23:14:00,
2013-09-10 16:19:00,78.2,40.5,24.78,WSW,245,4.0,-999.0,26,-99.99,,,-99.99,dwt +perl,2013-09-10 23:19:00,
2013-09-10 16:24:00,78.0,44.9,24.78,WSW,237,1.0,-999.0,31,-99.99,,,-99.99,dwt +perl,2013-09-10 23:24:00,
2013-09-10 16:29:00,77.4,36.7,24.78,SW,217,11.0,-999.0,23,-99.99,,,-99.99,dwt +perl,2013-09-10 23:29:00,
2013-09-10 16:39:00,76.2,43.3,24.78,SSW,203,1.0,-999.0,31,-99.99,,,-99.99,dwt +perl,2013-09-10 23:39:00,
2013-09-10 16:44:00,75.8,43.0,24.78,SSW,212,4.0,-999.0,31,-99.99,,,-99.99,dwt +perl,2013-09-10 23:44:00,
2013-09-10 16:49:00,75.5,42.7,24.78,SW,235,9.0,-999.0,31,-99.99,,,-99.99,dwt +perl,2013-09-10 23:49:00,
2013-09-10 16:54:00,74.9,43.0,24.78,SW,217,3.0,-999.0,32,-99.99,,,-99.99,dwt +perl,2013-09-10 23:54:00,
2013-09-10 16:59:00,74.6,44.4,24.78,SSW,210,4.0,-999.0,34,-99.99,,,-99.99,dwt +perl,2013-09-10 23:59:00,
2013-09-10 17:04:00,75.0,44.7,24.78,SSW,202,7.0,-999.0,34,-99.99,,,-99.99,dwt +perl,2013-09-11 00:04:00,
2013-09-10 17:09:00,74.6,36.4,24.78,SW,235,6.0,-999.0,25,-99.99,,,-99.99,dwt +perl,2013-09-11 00:09:00,
2013-09-10 17:14:00,74.4,44.2,24.78,WSW,256,8.0,-999.0,34,-99.99,,,-99.99,dwt +perl,2013-09-11 00:14:00,
2013-09-10 17:19:00,74.2,42.4,24.78,WSW,243,4.0,-999.0,32,-99.99,,,-99.99,dwt +perl,2013-09-11 00:19:00,
2013-09-10 17:29:00,73.1,39.8,24.78,SW,222,7.0,-999.0,30,-99.99,,,-99.99,dwt +perl,2013-09-11 00:29:00,
2013-09-10 17:34:00,73.3,41.6,24.78,WSW,241,7.0,-999.0,32,-99.99,,,-99.99,dwt +perl,2013-09-11 00:34:00,
2013-09-10 17:39:00,73.1,43.8,24.78,SSW,212,7.0,-999.0,35,-99.99,,,-99.99,dwt +perl,2013-09-11 00:39:00,
2013-09-10 17:44:00,73.1,41.5,24.78,WSW,248,7.0,-999.0,32,-99.99,,,-99.99,dwt +perl,2013-09-11 00:44:00,
2013-09-10 17:49:00,72.7,42.7,24.78,WSW,237,7.0,-999.0,34,-99.99,,,-99.99,dwt +perl,2013-09-11 00:49:00,
2013-09-10 17:59:00,72.0,39.7,24.78,West,259,6.0,-999.0,31,-99.99,,,-99.99,dwt +perl,2013-09-11 00:59:00,
2013-09-10 18:04:00,71.8,39.5,24.78,SSW,213,5.0,-999.0,31,-99.99,,,-99.99,dwt +perl,2013-09-11 01:04:00,
2013-09-10 18:09:00,71.7,38.6,24.78,SW,230,9.0,-999.0,30,-99.99,,,-99.99,dwt +perl,2013-09-11 01:09:00,
2013-09-10 18:14:00,71.6,36.8,24.78,SW,231,9.0,-999.0,28,-99.99,,,-99.99,dwt +perl,2013-09-11 01:14:00,
2013-09-10 18:19:00,71.2,38.2,24.78,WSW,240,8.0,-999.0,30,-99.99,,,-99.99,dwt +perl,2013-09-11 01:19:00,
2013-09-10 18:24:00,71.0,33.4,24.78,SW,236,4.0,-999.0,25,-99.99,,,-99.99,dwt +perl,2013-09-11 01:24:00,
2013-09-10 18:29:00,71.1,36.3,24.79,SW,228,7.0,-999.0,28,-99.99,,,-99.99,dwt +perl,2013-09-11 01:29:00,
2013-09-10 18:44:00,70.6,31.0,24.79,WSW,242,2.0,-999.0,23,-99.99,,,-99.99,dwt +perl,2013-09-11 01:44:00,
2013-09-10 18:49:00,70.3,32.8,24.79,WSW,241,3.0,-999.0,25,-99.99,,,-99.99,dwt +perl,2013-09-11 01:49:00,
2013-09-10 18:54:00,70.2,29.6,24.79,WSW,241,3.0,-999.0,22,-99.99,,,-99.99,dwt +perl,2013-09-11 01:54:00,
2013-09-10 18:59:00,69.9,29.3,24.79,SW,222,7.0,-999.0,22,-99.99,,,-99.99,dwt +perl,2013-09-11 01:59:00,
2013-09-10 19:04:00,69.7,28.0,24.79,WSW,255,4.0,-999.0,21,-99.99,,,-99.99,dwt +perl,2013-09-11 02:04:00,
2013-09-10 19:09:00,69.4,28.9,24.79,WSW,253,3.0,-999.0,22,-99.99,,,-99.99,dwt +perl,2013-09-11 02:09:00,
2013-09-10 19:19:00,68.6,30.4,24.79,WSW,246,6.0,-999.0,24,-99.99,,,-99.99,dwt +perl,2013-09-11 02:19:00,
2013-09-10 19:24:00,68.2,29.0,24.79,WSW,246,6.0,-999.0,23,-99.99,,,-99.99,dwt +perl,2013-09-11 02:24:00,
2013-09-10 19:29:00,67.9,26.5,24.79,West,259,6.0,-999.0,21,-99.99,,,-99.99,dwt +perl,2013-09-11 02:29:00,
2013-09-10 19:34:00,67.6,26.3,24.79,WSW,241,10.0,-999.0,21,-99.99,,,-99.99,dwt +perl,2013-09-11 02:34:00,
2013-09-10 19:39:00,67.6,26.3,24.79,West,265,5.0,-999.0,21,-99.99,,,-99.99,dwt +perl,2013-09-11 02:39:00,
2013-09-10 19:49:00,67.5,26.2,24.80,West,262,6.0,-999.0,21,-99.99,,,-99.99,dwt +perl,2013-09-11 02:49:00,
2013-09-10 19:54:00,67.5,26.2,24.80,West,265,7.0,-999.0,21,-99.99,,,-99.99,dwt +perl,2013-09-11 02:54:00,
2013-09-10 20:04:00,67.5,26.2,24.80,WSW,256,6.0,-999.0,21,-99.99,,,-99.99,dwt +perl,2013-09-11 03:04:00,
2013-09-10 20:09:00,67.5,26.2,24.80,WSW,247,5.0,-999.0,21,-99.99,,,-99.99,dwt +perl,2013-09-11 03:09:00,
2013-09-10 20:14:00,67.5,26.2,24.80,WSW,247,10.0,-999.0,21,-99.99,,,-99.99,dwt +perl,2013-09-11 03:14:00,
2013-09-10 20:19:00,67.4,26.1,24.81,WSW,252,5.0,-999.0,21,-99.99,,,-99.99,dwt +perl,2013-09-11 03:19:00,
2013-09-10 20:24:00,67.4,26.1,24.81,WSW,247,8.0,-999.0,21,-99.99,,,-99.99,dwt +perl,2013-09-11 03:24:00,
2013-09-10 20:29:00,67.4,24.9,24.81,WSW,245,8.0,-999.0,20,-99.99,,,-99.99,dwt +perl,2013-09-11 03:29:00,
2013-09-10 20:34:00,67.5,26.2,24.81,WSW,251,6.0,-999.0,21,-99.99,,,-99.99,dwt +perl,2013-09-11 03:34:00,
2013-09-10 20:44:00,67.3,26.0,24.81,WSW,258,6.0,-999.0,21,-99.99,,,-99.99,dwt +perl,2013-09-11 03:44:00,
2013-09-10 20:49:00,67.2,25.9,24.82,WNW,285,8.0,-999.0,21,-99.99,,,-99.99,dwt +perl,2013-09-11 03:49:00,
2013-09-10 20:54:00,67.3,26.0,24.82,WSW,258,7.0,-999.0,21,-99.99,,,-99.99,dwt +perl,2013-09-11 03:54:00,
2013-09-10 20:59:00,67.2,25.9,24.82,WSW,249,5.0,-999.0,21,-99.99,,,-99.99,dwt +perl,2013-09-11 03:59:00,
2013-09-10 21:04:00,67.1,25.9,24.82,West,260,5.0,-999.0,21,-99.99,,,-99.99,dwt +perl,2013-09-11 04:04:00,
2013-09-10 21:09:00,67.1,25.9,24.82,WSW,256,5.0,-999.0,21,-99.99,,,-99.99,dwt +perl,2013-09-11 04:09:00,
2013-09-10 21:14:00,67.1,25.9,24.82,West,261,5.0,-999.0,21,-99.99,,,-99.99,dwt +perl,2013-09-11 04:14:00,
2013-09-10 21:19:00,67.1,25.9,24.82,WSW,258,6.0,-999.0,21,-99.99,,,-99.99,dwt +perl,2013-09-11 04:19:00,
2013-09-10 21:24:00,67.2,25.9,24.82,WSW,258,5.0,-999.0,21,-99.99,,,-99.99,dwt +perl,2013-09-11 04:24:00,
2013-09-10 21:29:00,67.2,25.9,24.82,WSW,252,7.0,-999.0,21,-99.99,,,-99.99,dwt +perl,2013-09-11 04:29:00,
2013-09-10 21:34:00,67.1,25.9,24.82,West,266,7.0,-999.0,21,-99.99,,,-99.99,dwt +perl,2013-09-11 04:34:00,
2013-09-10 21:39:00,67.1,25.9,24.82,West,267,5.0,-999.0,21,-99.99,,,-99.99,dwt +perl,2013-09-11 04:39:00,
2013-09-10 21:44:00,67.1,25.9,24.82,WSW,251,8.0,-999.0,21,-99.99,,,-99.99,dwt +perl,2013-09-11 04:44:00,
2013-09-10 21:49:00,67.2,27.1,24.83,West,276,7.0,-999.0,22,-99.99,,,-99.99,dwt +perl,2013-09-11 04:49:00,
2013-09-10 21:54:00,67.3,27.1,24.83,WSW,241,10.0,-999.0,22,-99.99,,,-99.99,dwt +perl,2013-09-11 04:54:00,
2013-09-10 21:59:00,67.4,27.2,24.83,WSW,246,6.0,-999.0,22,-99.99,,,-99.99,dwt +perl,2013-09-11 04:59:00,
2013-09-10 22:04:00,67.4,27.2,24.83,WSW,251,5.0,-999.0,22,-99.99,,,-99.99,dwt +perl,2013-09-11 05:04:00,
2013-09-10 22:09:00,67.5,27.3,24.83,WSW,250,6.0,-999.0,22,-99.99,,,-99.99,dwt +perl,2013-09-11 05:09:00,
2013-09-10 22:14:00,67.5,28.4,24.83,WSW,241,7.0,-999.0,23,-99.99,,,-99.99,dwt +perl,2013-09-11 05:14:00,
2013-09-10 22:19:00,67.4,28.3,24.83,WSW,253,6.0,-999.0,23,-99.99,,,-99.99,dwt +perl,2013-09-11 05:19:00,
2013-09-10 22:24:00,67.5,28.4,24.83,West,262,6.0,-999.0,23,-99.99,,,-99.99,dwt +perl,2013-09-11 05:24:00,
2013-09-10 22:29:00,67.4,28.3,24.83,WSW,249,7.0,-999.0,23,-99.99,,,-99.99,dwt +perl,2013-09-11 05:29:00,
2013-09-10 22:34:00,67.5,28.4,24.83,WSW,252,7.0,-999.0,23,-99.99,,,-99.99,dwt +perl,2013-09-11 05:34:00,
2013-09-10 22:39:00,67.3,28.2,24.83,WSW,248,8.0,-999.0,23,-99.99,,,-99.99,dwt +perl,2013-09-11 05:39:00,
2013-09-10 22:44:00,67.3,28.2,24.83,WSW,250,7.0,-999.0,23,-99.99,,,-99.99,dwt +perl,2013-09-11 05:44:00,
2013-09-10 22:49:00,67.3,27.1,24.83,WSW,251,8.0,-999.0,22,-99.99,,,-99.99,dwt +perl,2013-09-11 05:49:00,
2013-09-10 22:54:00,67.1,27.0,24.83,WSW,243,11.0,-999.0,22,-99.99,,,-99.99,dwt +perl,2013-09-11 05:54:00,
2013-09-10 22:59:00,67.0,26.9,24.83,WSW,250,9.0,-999.0,22,-99.99,,,-99.99,dwt +perl,2013-09-11 05:59:00,
2013-09-10 23:04:00,66.9,28.9,24.83,WSW,255,11.0,-999.0,24,-99.99,,,-99.99,dwt +perl,2013-09-11 06:04:00,
2013-09-10 23:09:00,67.1,28.1,24.83,WSW,247,11.0,-999.0,23,-99.99,,,-99.99,dwt +perl,2013-09-11 06:09:00,
2013-09-10 23:14:00,67.0,28.0,24.83,WSW,249,12.0,-999.0,23,-99.99,,,-99.99,dwt +perl,2013-09-11 06:14:00,
2013-09-10 23:19:00,67.0,29.0,24.83,WSW,247,12.0,-999.0,24,-99.99,,,-99.99,dwt +perl,2013-09-11 06:19:00,
2013-09-10 23:24:00,67.3,30.3,24.83,WSW,255,8.0,-999.0,25,-99.99,,,-99.99,dwt +perl,2013-09-11 06:24:00,
2013-09-10 23:29:00,67.4,30.4,24.83,WSW,240,11.0,-999.0,25,-99.99,,,-99.99,dwt +perl,2013-09-11 06:29:00,
2013-09-10 23:34:00,67.3,29.3,24.83,West,261,8.0,-999.0,24,-99.99,,,-99.99,dwt +perl,2013-09-11 06:34:00,
2013-09-10 23:39:00,67.3,29.3,24.83,WSW,251,10.0,-999.0,24,-99.99,,,-99.99,dwt +perl,2013-09-11 06:39:00,
2013-09-10 23:44:00,67.3,30.3,24.83,WSW,254,8.0,-999.0,25,-99.99,,,-99.99,dwt +perl,2013-09-11 06:44:00,
2013-09-10 23:49:00,67.3,29.3,24.83,WSW,256,9.0,-999.0,24,-99.99,,,-99.99,dwt +perl,2013-09-11 06:49:00,
2013-09-10 23:54:00,67.2,28.1,24.83,SW,234,9.0,-999.0,23,-99.99,,,-99.99,dwt +perl,2013-09-11 06:54:00,
2013-09-10 23:59:00,67.2,28.1,24.83,WSW,258,5.0,-999.0,23,-99.99,,,-99.99,dwt +perl,2013-09-11 06:59:00,